This demonstration page uses our WeatherBlox Daily Observations layout. Learn more.

Left ArrowRight Arrow

39.08367, -84.50855

Hourly Observations for April 12, 2017

Temp ( °F °C ) Dew Point ( °F °C ) Humidity (%) Winds ( mph kmh ) Pressure ( in mb ) Visibility ( mi km ) Precip ( " mm )
12:53 am 00:53 Clear 53 11.7 50 10 89 89 NNW 3 6 30.27 1025 10 16.0934 0 0
1:53 am 01:53 Clear 53 11.7 51 10.6 93 93 N 3 6 30.27 1025 10 16.0934 0 0
2:53 am 02:53 Clear 53 11.7 47 8.3 80 80 N 7 11 30.29 1026 10 16.0934 0 0
3:53 am 03:53 Clear 51 10.6 46 7.8 83 83 N 3 6 30.29 1026 10 16.0934 0 0
4:53 am 04:53 Clear 49 9.4 46 7.8 90 90 Calm 30.31 1026 10 16.0934 0 0
5:53 am 05:53 Clear 45 7.2 45 7.2 100 100 Calm 30.32 1027 10 16.0934 0 0
6:10 am 06:10 Clear with Mist and Fog 45 7.2 45 7.2 100 100 Calm 30.33 1027 1.75 2.816345 0 0
6:29 am 06:29 Clear with Fog 44 6.7 44 6.7 100 100 Calm 30.33 1027 0.5 0.80467 0 0
6:44 am 06:44 Clear with Fog 43 6 43 6 100 100 Calm 30.33 1027 0.25 0.402335 0 0
6:49 am 06:49 Clear with Patchy Fog 43 6 43 6 100 100 Calm 30.33 1027 6 9.65604 0 0
6:53 am 06:53 Clear with Patchy Fog 43 6.1 43 6.1 100 100 Calm 30.32 1027 8 12.87472 0 0
7:53 am 07:53 Sunny with Fog 42 5.6 42 5.6 100 100 Calm 30.34 1028 10 16.0934 0 0
8:53 am 08:53 Sunny 49 9.4 48 8.9 97 97 Calm 30.36 1028 10 16.0934 0 0
9:53 am 09:53 Sunny 56 13.3 45 7.2 67 67 N 9 15 30.37 1029 10 16.0934 0 0
10:53 am 10:53 Sunny 58 14.4 43 6.1 58 58 NNW 8 13 30.39 1029 10 16.0934 0 0
11:53 am 11:53 Sunny 60 15.6 45 7.2 58 58 W 6 9 30.39 1029 10 16.0934 0 0
12:53 pm 12:53 Sunny 63 17.2 45 7.2 52 52 Calm 30.38 1029 10 16.0934 0 0
1:53 pm 13:53 Sunny 65 18.3 43 6.1 45 45 VRB 3 6 30.36 1028 10 16.0934 0 0
2:53 pm 14:53 Sunny 67 19.4 43 6.1 42 42 E 3 6 30.36 1028 10 16.0934 0 0
3:53 pm 15:53 Sunny 68 20 44 6.7 42 42 VRB 5 7 30.34 1027 10 16.0934 0 0
4:53 pm 16:53 Sunny 70 21.1 46 7.8 42 42 WNW 7 11 30.33 1027 10 16.0934 0 0
5:53 pm 17:53 Sunny 69 20.6 45 7.2 42 42 NE 8 13 30.34 1027 10 16.0934 0 0
6:53 pm 18:53 Sunny 68 20 45 7.2 44 44 NNE 5 7 30.34 1027 10 16.0934 0 0
7:53 pm 19:53 Sunny 63 17.2 45 7.2 52 52 N 6 9 30.35 1028 10 16.0934 0 0
8:53 pm 20:53 Clear 59 15 49 9.4 69 69 Calm 30.37 1028 10 16.0934 0 0
9:53 pm 21:53 Clear 54 12.2 51 10.6 90 90 Calm 30.38 1029 10 16.0934 0 0
10:53 pm 22:53 Clear 50 10 49 9.4 96 96 ENE 3 6 30.39 1029 10 16.0934 0 0
11:53 pm 23:53 Clear 49 9.4 49 9.4 100 100 Calm 30.37 1028 10 16.0934 0 0

Powered by AerisWeather